Home > Weather > Lampertheim > Past weeks

Flag for Germany Weather for the Past 2 Weeks in Lampertheim, Hesse, Germany

Now
45 °F

Passing clouds.


Feels Like: 40 °F
Forecast: 35 / 45 °F
Wind: 9 mph from Southeast

Location: Mannheim City

Current Time: Feb 12, 2016 at 2:14:14 PM

Latest Report: Feb 12, 2016 at 1:50 PM


Visibility: N/A

Pressure: 29.50 "Hg

Humidity: 61%

Dew point: 32 °F

Location of LampertheimLocation

Historic Weather in Lampertheim — Graph

°F

Lampertheim Temperature Yesterday

Maximum temperature yesterday: 45 °F (at 3:20 PM)
Minimum temperature yesterday: 39 °F (at 5:50 AM)
Average temperature yesterday: 41 °F

High & Low Weather Summary for the Past Weeks

 TemperatureHumidityPressure
High57 °F (Feb 1, 2:50 AM)100% (Jan 31, 8:50 AM)30.45 "Hg (Jan 31, 8:50 AM)
Low34 °F (Feb 12, 5:50 AM)50% (Jan 29, 1:50 PM)29.09 "Hg (Feb 9, 4:20 PM)
Average46 °F78%29.94 "Hg
* Reported Jan 28 12:20 PM — Feb 12 12:50 PM, Lampertheim, Weather by CustomWeather, © 2016

Note: Actual official high and low records may vary slightly from our data, if they occured in-between our weather recording intervals... More about our weather records

Advertising

Lampertheim Weather History for the Previous 24 Hours

 ConditionsComfort  
Time TempWeatherWind HumidityBarometerVisibility
12:50 PM
Fri, Feb 12
43 °FScattered clouds.6 mph66%29.53 "HgN/A
12:20 PM41 °FScattered clouds.5 mph70%29.56 "HgN/A
11:50 AM39 °FBroken clouds.5 mph81%29.56 "HgN/A
11:20 AM39 °FScattered clouds.6 mph81%29.59 "HgN/A
10:50 AM39 °FScattered clouds.6 mph81%29.59 "HgN/A
10:20 AM39 °FScattered clouds.5 mph81%29.62 "HgN/A
9:50 AM37 °FPartly sunny.5 mph87%29.62 "HgN/A
9:20 AM36 °FPartly sunny.5 mph93%29.65 "HgN/A
8:50 AM36 °FScattered clouds.5 mph93%29.65 "HgN/A
8:20 AM34 °FBroken clouds.5 mph100%29.65 "HgN/A
7:50 AM34 °FMore clouds than sun.3 mph100%29.68 "HgN/A
7:20 AM34 °FMostly cloudy.3 mph100%29.68 "HgN/A
6:50 AM34 °FOvercast.3 mph100%29.68 "HgN/A
6:20 AM34 °FOvercast.5 mph93%29.68 "HgN/A
5:50 AM34 °FPassing clouds.3 mph93%29.68 "HgN/A
8:50 PM
Thu, Feb 11
41 °FPassing clouds.2 mph81%29.74 "HgN/A
8:20 PM41 °FPassing clouds.5 mph81%29.74 "HgN/A
7:50 PM41 °FPassing clouds.5 mph81%29.74 "HgN/A
7:20 PM41 °FClear.3 mph81%29.74 "Hg10 mi
6:50 PM41 °FPartly cloudy.5 mph76%29.74 "HgN/A
6:20 PM41 °FPassing clouds.5 mph76%29.74 "HgN/A
5:50 PM41 °FPartly cloudy.7 mph76%29.74 "HgN/A
5:20 PM41 °FBroken clouds.8 mph76%29.74 "HgN/A
4:50 PM43 °FMostly cloudy.9 mph71%29.74 "HgN/A
4:20 PM43 °FPartly sunny.9 mph71%29.74 "HgN/A
3:50 PM43 °FPartly sunny.8 mph71%29.71 "HgN/A
3:20 PM45 °FBroken clouds.10 mph66%29.74 "HgN/A
2:50 PM43 °FPartly sunny.9 mph76%29.74 "HgN/A
2:20 PM43 °FPartly sunny.8 mph76%29.74 "HgN/A
Weather by CustomWeather, © 2016

See weather overviewHow to use our weather pages